Location: Hermaringen
(48.5952°N, 10.2585°E)
Time: 11:10:07
(UTC+00:00)

Courier 1B - Pass Details

Date: 25 February 2026
Orbit: 962 x 1208 km, 28.3° (Epoch: 7 March)

Event Time Altitude Azimuth Distance (km) Brightness Sun altitude
Rises 16:26:10 0° 215° (SW) 3,706 11.5 4.0°
Reaches altitude 10° 16:31:18 10° 182° (S) 2,816 10.2 3.1°
Maximum altitude 16:33:02 11° 167° (SSE) 2,763 10.0 2.9°
Drops below altitude 10° 16:34:47 10° 152° (SSE) 2,862 9.9 2.6°
Sets 16:40:10 0° 120° (ESE) 3,892 10.2 1.7°
